Monte Cimone, Italy

8:57 PM CEST on October 19, 2017 (GMT +0200)
Monte Cimone

Weather History for LIVC - February, 2013

Change the Weather History Date:

Friday, February 15, 2013

  Actual Average Record
Temperature  
Mean Temperature 24 °F -  
Max Temperature 25 °F 29 °F 42 °F (1998)
Min Temperature 21 °F 21 °F 8 °F (1999)
Degree Days  
Heating Degree Days 41    
Moisture  
Dew Point 14 °F    
Average Humidity 64    
Maximum Humidity 74    
Minimum Humidity 47    
Precipitation  
Precipitation 0.00 in 0.06 in - ()
Sea Level Pressure  
Sea Level Pressure 29.81 in    
Wind  
Wind Speed 7 mph ()    
Max Wind Speed 21 mph    
Max Gust Speed -    
Visibility 6.4 miles    
Events Fog    
Averages and records for this station are not official NWS values.
T = Trace of Precipitation, MM = Missing Value Source: Averaged Metar Reports

Daily Weather History Graph

Daily Weather History Graph

Search for Another Location

Airport or City:

Trip Planner

Search our weather history database for the weather conditions in past years. The results will help you decide how hot, cold, wet, or windy it might be!

Date:

Astronomy

Feb. 15, 2013 Rise Set
Actual Time 7:16 AM CET 5:46 PM CET
Civil Twilight 6:46 AM CET 6:16 PM CET
Nautical Twilight 6:13 AM CET 6:50 PM CET
Astronomical Twilight 5:39 AM CET 7:23 PM CET
Moon 9:29 AM CET (2/15) 11:46 PM CET (2/15)
Length of Visible Light 11h 29m
Length of Day
10h 29m
Waxing Crescent, 28% of the Moon is Illuminated
Feb 15
Waxing Crescent
Feb 17
First Quarter
Feb 25
Full
Mar 4
Last Quarter
Mar 11
New

Hourly Weather History & Observations

Time (CET) Temp. Windchill Dew Point Humidity Pressure Visibility Wind Dir Wind Speed Gust Speed Precip Events Conditions
12:55 AM 24.8 °F 16.9 °F 15.8 °F 69% 29.83 in - NE 6.9 mph - N/A   Clear
1:00 AM 24 °F - 16 °F 60%  in 31 mi NE 6.9 mph - -   Clear
1:55 AM 24.8 °F 17.9 °F 15.8 °F 69% 29.83 in - NE 5.8 mph - N/A   Clear
2:55 AM 26.6 °F - 15.8 °F 64% 29.83 in - Calm Calm - N/A   Clear
3:55 AM 26.6 °F - 15.8 °F 64% 29.80 in - Calm Calm - N/A   Clear
4:55 AM 26.6 °F 21.2 °F 15.8 °F 64% 29.80 in - NE 4.6 mph - N/A   Clear
5:55 AM 26.6 °F 18.2 °F 15.8 °F 64% 29.80 in - NNE 8.1 mph - N/A   Clear
6:55 AM 24.8 °F 17.9 °F 14.0 °F 64% 29.80 in - North 5.8 mph - N/A   Clear
7:55 AM 24.8 °F 16.9 °F 14.0 °F 64% 29.80 in - NE 6.9 mph - N/A   Clear
8:55 AM 24.8 °F 16.9 °F 12.2 °F 59% 29.80 in 6.2 mi WNW 6.9 mph - N/A   Scattered Clouds
9:55 AM 23.0 °F 13.1 °F 6.8 °F 50% 29.80 in - West 9.2 mph - N/A   Clear
10:55 AM 23.0 °F 14.7 °F 8.6 °F 54% 29.80 in - West 6.9 mph - N/A   Clear
11:55 AM 23.0 °F 14.7 °F 12.2 °F 63% 29.80 in 6.2 mi ENE 6.9 mph - N/A   Scattered Clouds
12:55 PM 24.8 °F 16.9 °F 12.2 °F 59% 29.80 in 6.2 mi ENE 6.9 mph - N/A   Partly Cloudy
1:00 PM 25 °F - 13 °F 47%  in 19 mi ENE 6.9 mph - -   Scattered Clouds
1:55 PM 24.8 °F 16.1 °F 14.0 °F 64% 29.80 in 6.2 mi NE 8.1 mph - N/A   Scattered Clouds
2:55 PM 24.8 °F 12.9 °F 14.0 °F 64% 29.80 in 6.2 mi NNE 13.8 mph - N/A   Scattered Clouds
3:55 PM 24.8 °F 13.4 °F 17.6 °F 74% 29.80 in 0.1 mi NNE 12.7 mph - N/A Fog Light Freezing Fog
4:55 PM 24.8 °F 14.6 °F 17.6 °F 74% 29.80 in 0.1 mi NE 10.4 mph - N/A Fog Light Freezing Fog
5:55 PM 23.0 °F 9.6 °F 15.8 °F 74% 29.80 in 6.2 mi NE 16.1 mph - N/A   Scattered Clouds
6:55 PM 23.0 °F 10.6 °F 14.0 °F 68% 29.83 in 6.2 mi NE 13.8 mph - N/A   Scattered Clouds
7:00 PM 23 °F - 14 °F 58%  in 9 mi NE 13.8 mph - -   Partly Cloudy
7:55 PM 23.0 °F 8.0 °F 14.0 °F 68% 29.83 in 6.2 mi NNE 20.7 mph - N/A   Scattered Clouds
8:55 PM 23.0 °F 8.7 °F 14.0 °F 68% 29.83 in 6.2 mi NNE 18.4 mph - N/A   Scattered Clouds
9:55 PM 23.0 °F 9.6 °F 12.2 °F 63% 29.86 in 6.2 mi NNE 16.1 mph - N/A   Scattered Clouds
10:55 PM 23.0 °F 10.1 °F 15.8 °F 74% 29.86 in 6.2 mi NNE 15.0 mph - N/A   Partly Cloudy
11:55 PM 21.2 °F 6.0 °F 12.2 °F 68% 29.86 in 6.2 mi NNE 19.6 mph - N/A   Partly Cloudy